Regional Weather Roundup
Issued by NWS

Home | Current Version | Previous Version | Text Only | Print | Product List | Glossary Off
Versions: 1 2 3 4 5 6 7 8 9 10 11 12 13 14 15 16 17 18 19 20 21 22 23 24 25 26 27 28 29 30 31 32 33 34 35 36 37 38 39 40 41 42 43 44 45 46 47 48 49 50

000
ASUS43 KBIS 111202
RWRND

NORTH DAKOTA REGIONAL WEATHER ROUNDUP
NATIONAL WEATHER SERVICE BISMARCK ND
600 AM CST MON DEC 11 2017

NOTE: "FAIR" INDICATES FEW OR NO CLOUDS BELOW 12,000 FEET WITH NO
SIGNIFICANT WEATHER AND/OR OBSTRUCTIONS TO VISIBILITY.


NDZ001>003-009>011-017-111300-
NORTHWEST NORTH DAKOTA

CITY           SKY/WX    TMP DP  RH WIND       PRES   REMARKS
WILLISTON      CLOUDY    37  30  75 NW25G33   30.17R
6HR MIN TEMP:  37; 6HR MAX TEMP:  43;

MINOT          CLOUDY    38  30  73 NW24G38   30.03R
MINOT AFB      CLOUDY    37  29  74 N25G36    30.02R
$$

NDZ018>021-031>035-040>046-111300-
SOUTHWEST NORTH DAKOTA

CITY           SKY/WX    TMP DP  RH WIND       PRES   REMARKS
BISMARCK       CLOUDY    43  33  68 NW20G32   30.00R
6HR MIN TEMP:  43; 6HR MAX TEMP:  46;

DICKINSON      CLOUDY    36  29  75 NW23G32   30.09R
GARRISON         N/A     37  30  75 NW26G39   30.01R
6HR MIN TEMP:  37; 6HR MAX TEMP:  42;

HETTINGER ARPT CLOUDY    38  26  62 NW33G43   30.11R
$$

NDZ004>008-012>016-024-026-027-054-111300-
NORTHEAST NORTH DAKOTA

CITY           SKY/WX    TMP DP  RH WIND       PRES   REMARKS
GRAND FORKS    CLOUDY    33  30  88 N39G49    29.81R WCI  17
GRND FRKS AFB  CLOUDY    32  29  87 N36G46    29.83R WCI  17
DEVILS LAKE    CLOUDY    33  30  88 N25G36    29.90R
$$

NDZ022-023-025-028>030-036>039-047>053-111300-
SOUTHEAST NORTH DAKOTA

CITY           SKY/WX    TMP DP  RH WIND       PRES   REMARKS
FARGO          CLOUDY    36  33  89 NW16      29.77R
6HR MIN TEMP:  30; 6HR MAX TEMP:  38; 6HR PCP:  0.01;

JAMESTOWN      CLOUDY    37  34  89 NW23G33   29.85R
$$




USA.gov is the U.S. government's official web portal to all federal, state and local government web resources and services.